Ubon Ratchathani, Thailand

5:08 AM ICT on January 17, 2017 (GMT +0700)
Ubon Ratchathani

Weather History for VTUU - February, 2014

Change the Weather History Date:

Saturday, February 1, 2014

  Actual Average Record
Temperature  
Mean Temperature 76 °F -  
Max Temperature 90 °F 92 °F - ()
Min Temperature 61 °F 67 °F - ()
Cooling Degree Days 10    
Growing Degree Days 26 (Base 50)    
Moisture  
Dew Point 61 °F    
Average Humidity 61    
Maximum Humidity 94    
Minimum Humidity 26    
Precipitation  
Precipitation 0.00 in 0.02 in - ()
Sea Level Pressure  
Sea Level Pressure 29.89 in    
Wind  
Wind Speed 2 mph ()    
Max Wind Speed 6 mph    
Max Gust Speed -    
Visibility 5.2 miles    
Events      
T = Trace of Precipitation, MM = Missing Value Source: Averaged Metar Reports

Daily Weather History Graph

Daily Weather History Graph

Search for Another Location

Airport or City:

Trip Planner

Search our weather history database for the weather conditions in past years. The results will help you decide how hot, cold, wet, or windy it might be!

Date:

Astronomy

Feb. 01, 2014 Rise Set
Actual Time 6:29 AM ICT 5:58 PM ICT
Civil Twilight 6:07 AM ICT 6:20 PM ICT
Nautical Twilight 5:41 AM ICT 6:46 PM ICT
Astronomical Twilight 5:15 AM ICT 7:12 PM ICT
Moon 7:19 AM ICT (2/1) 7:29 PM ICT (2/1)
Length of Visible Light 12h 13m
Length of Day
11h 28m
Waxing Crescent, 3% of the Moon is Illuminated
Feb 1
Waxing Crescent
Feb 7
First Quarter
Feb 15
Full
Feb 23
Last Quarter
Mar 1
New

Hourly Weather History & Observations

Time (ICT) Temp. Heat Index Dew Point Humidity Pressure Visibility Wind Dir Wind Speed Gust Speed Precip Events Conditions
1:00 AM 70 °F - 61 °F 66% 29.93 in 6 mi NE 3.5 mph - -   Mist
1:00 AM 69.8 °F - 60.8 °F 73% 29.92 in 5.6 mi NE 2.3 mph - N/A   Unknown
2:00 AM 68.0 °F - 60.8 °F 78% 29.92 in 5.6 mi Calm Calm - N/A   Unknown
4:00 AM 65 °F - 59 °F 76% 29.90 in 6 mi Calm Calm - -   Mist
4:00 AM 66.2 °F - 59.0 °F 78% 29.89 in 5.6 mi Calm Calm - N/A   Unknown
5:00 AM 64.4 °F - 59.0 °F 83% 29.89 in 5.0 mi Calm Calm - N/A   Unknown
6:00 AM 64.4 °F - 60.8 °F 88% 29.92 in 5.0 mi NNE 2.3 mph - N/A   Unknown
6:30 AM 62.6 °F - 60.8 °F 94% 29.92 in 4.3 mi Calm Calm - N/A   Unknown
7:00 AM 64 °F - 60 °F 84% 29.93 in 4 mi Calm Calm - -   Mist
7:00 AM 64.4 °F - 60.8 °F 88% 29.92 in 4.3 mi Calm Calm - N/A   Unknown
8:00 AM 68.0 °F - 62.6 °F 83% 29.95 in 4.3 mi ESE 3.5 mph - N/A   Unknown
9:00 AM 71.6 °F - 62.6 °F 73% 29.95 in 5.0 mi SE 4.6 mph - N/A   Unknown
10:00 AM 77 °F - 62 °F 51% 29.97 in 6 mi SE 4.6 mph - -   Haze
10:00 AM 77.0 °F - 64.4 °F 65% 29.95 in 5.6 mi SE 4.6 mph - N/A   Unknown
11:00 AM 82.4 °F 83.4 °F 62.6 °F 51% 29.95 in - East 3.5 mph - N/A   Clear
12:00 PM 86.0 °F 86.6 °F 62.6 °F 45% 29.92 in - NE 3.5 mph - N/A   Clear
1:00 PM 87 °F - 59 °F 29% 29.90 in 6 mi West 5.8 mph - -   Clear
1:00 PM 86.0 °F 86.1 °F 60.8 °F 43% 29.89 in - West 5.8 mph - N/A   Clear
2:00 PM 87.8 °F 87.1 °F 59.0 °F 38% 29.83 in - North 5.8 mph - N/A   Clear
3:00 PM 87.8 °F 87.1 °F 59.0 °F 38% 29.80 in - NNW 3.5 mph - N/A   Clear
4:00 PM 89 °F - 58 °F 26% 29.82 in 6 mi SSW 3.5 mph - -   Clear
4:00 PM 89.6 °F 89.5 °F 60.8 °F 38% 29.80 in - SSW 3.5 mph - N/A   Clear
5:00 PM 87.8 °F 88.5 °F 62.6 °F 43% 29.80 in 5.6 mi SSE 1.2 mph - N/A   Unknown
5:30 PM 86.0 °F 86.6 °F 62.6 °F 45% 29.83 in 5.6 mi SSE 2.3 mph - N/A   Unknown
6:00 PM 86.0 °F 86.6 °F 62.6 °F 45% 29.83 in 5.6 mi South 2.3 mph - N/A   Unknown
7:00 PM 82 °F - 59 °F 36% 29.84 in 5 mi East 2.3 mph - -   Haze
7:00 PM 82.4 °F 82.9 °F 60.8 °F 48% 29.83 in 5.0 mi East 2.3 mph - N/A   Unknown
8:00 PM 80.6 °F 81.8 °F 62.6 °F 54% 29.86 in 5.0 mi ESE 2.3 mph - N/A   Unknown
9:00 PM 75.2 °F - 64.4 °F 69% 29.86 in 5.0 mi East 1.2 mph - N/A   Unknown
10:00 PM 72 °F - 64 °F 69% 29.89 in 5 mi East 2.3 mph - -   Mist
10:00 PM 73.4 °F - 64.4 °F 73% 29.89 in 5.0 mi East 2.3 mph - N/A   Unknown
11:00 PM 71.6 °F - 64.4 °F 78% 29.89 in 5.0 mi NNE 2.3 mph - N/A   Unknown